CW9148 Weather Reports


Display with metric or nautical units.
time (UTC)temp
F
wind
direction
speed
MPH
gust
MPH
rain 1hr
in
rain 24hr
in
rain mn
in
humidity
%
barometer
mb
20260905185338 68 218 0.0 0.0 0.00 0.00 0.00 42 1016.5
20260905184815 68 182 0.0 0.0 0.00 0.00 0.00 40 1016.5
20260905184341 67 194 0.0 0.0 0.00 0.00 0.00 40 1016.5
20260905183839 67 185 0.0 0.0 0.00 0.00 0.00 41 1016.6
20260905183336 66 115 0.0 0.0 0.00 0.00 0.00 42 1016.6
20260905182833 66 208 0.0 0.0 0.00 0.00 0.00 42 1016.6
20260905182333 66 207 0.0 0.0 0.00 0.00 0.00 41 1016.4
20260905181858 66 189 0.0 0.0 0.00 0.00 0.00 41 1016.4
20260905181334 65 208 0.0 0.0 0.00 0.00 0.00 42 1016.4
20260905180827 65 190 0.0 0.0 0.00 0.00 0.00 40 1016.3
20260905180351 65 190 0.0 0.0 0.00 0.00 0.00 45 1016.3
20260905175830 64 204 0.0 0.0 0.00 0.00 0.00 44 1016.3
20260905175328 64 204 0.0 0.0 0.00 0.01 0.00 46 1016.3
20260905174831 63 213 0.0 0.0 0.00 0.01 0.00 48 1016.3
20260905174357 63 210 0.0 0.0 0.00 0.01 0.00 48 1016.3
20260905173833 63 167 0.0 0.0 0.00 0.01 0.00 50 1016.1
20260905173332 62 181 0.0 0.0 0.00 0.01 0.00 49 1016.1
20260905172830 62 184 0.0 0.0 0.00 0.01 0.00 51 1016.1
20260905172328 62 178 0.0 0.0 0.00 0.01 0.00 51 1016.1
20260905171822 62 178 0.0 0.0 0.00 0.01 0.00 52 1016.1
20260905171320 62 212 0.0 0.0 0.00 0.01 0.00 51 1016.1
20260905170820 62 212 0.0 0.0 0.00 0.01 0.00 51 1016.0
20260905170320 62 211 0.0 0.0 0.00 0.01 0.00 50 1016.0
20260905165817 62 202 0.0 0.0 0.00 0.01 0.00 51 1016.0
20260905165344 62 203 0.0 0.0 0.00 0.02 0.00 52 1016.0
20260905164823 62 203 0.0 0.0 0.00 0.02 0.00 52 1016.0
20260905164322 61 202 0.0 0.0 0.00 0.02 0.00 51 1016.0
20260905163819 61 204 0.0 0.0 0.00 0.02 0.00 52 1016.0
20260905163316 61 172 0.0 0.0 0.00 0.02 0.00 52 1016.0
20260905162841 61 197 0.0 0.0 0.00 0.02 0.00 53 1016.0
20260905162337 60 182 0.0 0.0 0.00 0.02 0.00 53 1016.0
20260905161815 60 173 0.0 0.0 0.00 0.02 0.00 54 1016.0
20260905161340 60 173 0.0 0.0 0.00 0.02 0.00 54 1016.0
20260905160839 60 174 0.0 0.0 0.00 0.02 0.00 54 1015.9
20260905160338 60 165 0.0 0.0 0.00 0.02 0.00 56 1015.9
20260905155834 59 180 0.0 0.0 0.00 0.02 0.00 56 1015.9
20260905155330 59 138 0.0 0.0 0.00 0.02 0.00 58 1015.7
20260905154855 59 138 0.0 0.0 0.00 0.02 0.00 58 1015.7
20260905154332 58 138 0.0 0.0 0.00 0.02 0.00 59 1015.7
20260905153829 58 167 0.0 0.0 0.00 0.02 0.00 61 1015.7
20260905153349 57 167 0.0 0.0 0.00 0.02 0.00 61 1015.7
20260905152854 57 128 0.0 0.0 0.00 0.02 0.00 61 1015.7
20260905152331 57 128 0.0 0.0 0.00 0.02 0.00 61 1015.5
20260905151836 56 128 0.0 0.0 0.00 0.02 0.00 62 1015.5
20260905151334 56 123 0.0 0.0 0.00 0.02 0.00 63 1015.5
20260905150833 56 123 0.0 0.0 0.00 0.02 0.00 62 1015.6
20260905150332 56 123 0.0 0.0 0.00 0.02 0.00 62 1015.6
20260905145830 56 123 0.0 0.0 0.00 0.02 0.00 62 1015.6
20260905145331 56 123 0.0 0.0 0.00 0.03 0.00 62 1015.6
20260905144852 55 123 0.0 0.0 0.00 0.03 0.00 62 1015.6
20260905144330 55 123 0.0 0.0 0.00 0.03 0.00 62 1015.6
20260905143857 55 123 0.0 0.0 0.00 0.03 0.00 62 1015.5
20260905143334 55 123 0.0 0.0 0.00 0.03 0.00 62 1015.5
20260905142834 55 118 0.0 0.0 0.00 0.03 0.00 62 1015.5
20260905142334 55 118 0.0 0.0 0.00 0.03 0.00 62 1015.4
20260905141832 55 118 0.0 0.0 0.00 0.03 0.00 62 1015.4
20260905141333 55 118 0.0 0.0 0.00 0.03 0.00 61 1015.4
20260905140833 55 118 0.0 0.0 0.00 0.03 0.00 61 1015.2
20260905140329 55 118 0.0 0.0 0.00 0.03 0.00 61 1015.2
20260905135829 55 117 0.0 0.0 0.00 0.03 0.00 61 1015.2
20260905135319 55 117 0.0 0.0 0.00 0.03 0.00 61 1015.0
20260905134845 55 117 0.0 0.0 0.00 0.03 0.00 61 1015.0
20260905134323 55 117 0.0 0.0 0.00 0.03 0.00 61 1015.0
20260905133823 55 117 0.0 0.0 0.00 0.03 0.00 61 1015.0
20260905133326 55 117 0.0 0.0 0.00 0.03 0.00 61 1015.0
20260905132827 55 117 0.0 0.0 0.00 0.03 0.00 61 1015.0
20260905132327 55 111 0.0 0.0 0.00 0.03 0.00 61 1014.9
20260905131826 55 111 0.0 0.0 0.00 0.03 0.00 60 1014.9
20260905131324 55 111 0.0 0.0 0.00 0.03 0.00 61 1014.9
20260905130822 55 113 0.0 0.0 0.00 0.03 0.00 60 1014.9
20260905130344 55 113 0.0 0.0 0.00 0.03 0.00 60 1014.9
20260905125823 55 113 0.0 0.0 0.00 0.03 0.00 60 1014.9
20260905125322 55 113 0.0 0.0 0.00 0.03 0.00 60 1014.9
20260905124850 55 113 0.0 0.0 0.00 0.03 0.00 60 1014.9
20260905124327 55 113 0.0 0.0 0.00 0.03 0.00 60 1014.9
20260905123827 55 113 0.0 0.0 0.00 0.03 0.00 59 1015.0
20260905123326 55 113 0.0 0.0 0.00 0.03 0.00 60 1015.0
20260905122825 55 117 0.0 0.0 0.00 0.03 0.00 60 1015.0
20260905122326 55 107 0.0 0.0 0.00 0.03 0.00 59 1015.1
20260905121824 55 106 0.0 0.0 0.00 0.03 0.00 59 1015.1
20260905121326 55 106 0.0 0.0 0.00 0.03 0.00 60 1015.1
20260905120824 55 105 0.0 0.0 0.00 0.03 0.00 59 1015.2
20260905120349 55 105 0.0 0.0 0.00 0.03 0.00 60 1015.2
20260905115855 55 138 0.0 0.0 0.00 0.03 0.00 60 1015.2
20260905115333 55 128 0.0 0.0 0.00 0.03 0.00 59 1015.1
20260905114829 55 114 0.0 0.0 0.00 0.03 0.00 59 1015.1
20260905114330 55 128 0.0 0.0 0.00 0.03 0.00 59 1015.1
20260905113824 55 128 0.0 0.0 0.00 0.03 0.00 59 1015.1
20260905113351 55 123 0.0 0.0 0.00 0.03 0.00 59 1015.1
20260905112829 55 128 0.0 0.0 0.00 0.03 0.00 59 1015.1
20260905112322 55 121 0.0 0.0 0.00 0.03 0.00 59 1015.3
20260905111845 55 121 0.0 0.0 0.00 0.03 0.00 59 1015.3
20260905111324 55 121 0.0 0.0 0.00 0.03 0.00 59 1015.3
20260905110848 55 121 0.0 0.0 0.00 0.03 0.00 59 1015.3
20260905110326 55 121 0.0 0.0 0.00 0.03 0.00 59 1015.3
20260905105826 55 128 0.0 0.0 0.00 0.03 0.00 59 1015.3
20260905105325 55 128 0.0 0.0 0.00 0.03 0.00 59 1015.3
20260905104823 55 128 0.0 0.0 0.00 0.03 0.00 59 1015.3
20260905104347 55 133 0.0 0.0 0.00 0.03 0.00 59 1015.3
20260905103823 55 114 0.0 0.0 0.00 0.03 0.00 59 1015.4
20260905103318 55 113 0.0 0.0 0.00 0.03 0.00 59 1015.4
20260905102816 55 113 0.0 0.0 0.00 0.03 0.00 59 1015.4
20260905102340 55 113 0.0 0.0 0.00 0.03 0.00 59 1015.4
20260905101817 55 113 0.0 0.0 0.00 0.03 0.00 59 1015.4
20260905101316 55 113 0.0 0.0 0.00 0.03 0.00 59 1015.4
20260905100823 55 113 0.0 0.0 0.00 0.03 0.00 59 1015.5
20260905100322 55 113 0.0 0.0 0.00 0.03 0.00 59 1015.5
20260905095846 55 113 0.0 0.0 0.00 0.03 0.00 59 1015.5
20260905095323 55 94 0.0 0.0 0.00 0.03 0.00 58 1015.5
20260905094823 55 107 0.0 0.0 0.00 0.03 0.00 58 1015.5
20260905094322 55 107 0.0 0.0 0.00 0.03 0.00 58 1015.5
20260905093815 55 107 0.0 0.0 0.00 0.03 0.00 58 1015.5
20260905093401 55 102 0.0 0.0 0.00 0.03 0.00 58 1015.5
20260905092840 55 102 0.0 0.0 0.00 0.03 0.00 58 1015.5
20260905092338 55 101 0.0 0.0 0.00 0.03 0.00 58 1015.6
20260905091837 55 101 0.0 0.0 0.00 0.03 0.00 58 1015.6
20260905091315 55 101 0.0 0.0 0.00 0.03 0.00 58 1015.6
20260905090902 55 103 0.0 0.0 0.00 0.03 0.00 58 1015.5
20260905090336 55 105 0.0 0.0 0.00 0.03 0.00 58 1015.5
20260905085836 55 100 0.0 0.0 0.00 0.03 0.00 57 1015.5
20260905085354 55 99 0.0 0.0 0.00 0.03 0.00 57 1015.6
20260905084832 55 102 0.0 0.0 0.00 0.03 0.00 57 1015.6
20260905084332 55 102 0.0 0.0 0.00 0.03 0.00 57 1015.6
20260905083831 55 102 0.0 0.0 0.00 0.03 0.00 57 1015.6
20260905083329 55 98 0.0 0.0 0.00 0.03 0.00 57 1015.6
20260905082855 55 98 0.0 0.0 0.00 0.03 0.00 56 1015.6
20260905082327 55 96 0.0 0.0 0.00 0.03 0.00 56 1015.8
20260905081827 55 96 0.0 0.0 0.00 0.03 0.00 56 1015.8
20260905081326 55 96 0.0 0.0 0.00 0.03 0.00 56 1015.8
20260905080827 54 96 0.0 0.0 0.00 0.03 0.00 56 1015.7
20260905080326 54 96 0.0 0.0 0.00 0.03 0.00 56 1015.7
20260905075824 54 96 0.0 0.0 0.00 0.03 0.00 57 1015.7
20260905075324 54 96 0.0 0.0 0.00 0.03 0.03 57 1015.7
20260905074824 54 96 0.0 0.0 0.00 0.03 0.03 57 1015.7
20260905074324 54 90 0.0 0.0 0.00 0.03 0.03 57 1015.7
20260905073823 54 98 0.0 0.0 0.00 0.03 0.03 58 1015.6
20260905073327 54 95 0.0 0.0 0.00 0.03 0.03 58 1015.6
20260905072834 54 90 0.0 0.0 0.00 0.03 0.03 58 1015.6
20260905072331 54 102 0.0 0.0 0.00 0.03 0.03 58 1015.6
20260905071830 54 92 0.0 0.0 0.00 0.03 0.03 57 1015.6
20260905071324 54 94 0.0 0.0 0.00 0.03 0.03 57 1015.6
20260905070820 54 96 0.0 0.0 0.00 0.03 0.03 57 1015.5
20260905070319 54 94 0.0 0.0 0.00 0.03 0.03 57 1015.5
20260905065845 54 96 0.0 0.0 0.00 0.03 0.03 57 1015.5
20260905065321 54 98 0.0 0.0 0.00 0.03 0.03 57 1015.6
20260905064820 54 100 0.0 0.0 0.00 0.03 0.03 56 1015.6
20260905064320 54 100 0.0 0.0 0.00 0.03 0.03 56 1015.6
20260905063820 54 100 0.0 0.0 0.00 0.03 0.03 56 1015.6
20260905063319 54 109 0.0 0.0 0.00 0.03 0.03 56 1015.6
20260905062818 55 114 0.0 0.0 0.00 0.03 0.03 56 1015.6
20260905062321 55 114 0.0 0.0 0.00 0.03 0.03 56 1015.5
20260905061821 55 117 0.0 0.0 0.00 0.03 0.03 56 1015.5
20260905061316 55 117 0.0 0.0 0.00 0.03 0.03 55 1015.5
20260905060815 54 117 0.0 0.0 0.00 0.03 0.03 56 1015.6
20260905060341 54 117 0.0 0.0 0.00 0.03 0.03 55 1015.6
20260905055823 54 117 0.0 0.0 0.00 0.03 0.03 56 1015.6
20260905055321 54 117 0.0 0.0 0.00 0.03 0.03 57 1015.7
20260905054817 54 122 0.0 0.0 0.00 0.03 0.03 57 1015.7
20260905054343 54 123 0.0 0.0 0.00 0.03 0.03 57 1015.7
20260905053822 54 138 0.0 0.0 0.00 0.03 0.03 56 1015.9
20260905053326 54 204 0.0 0.0 0.00 0.03 0.03 55 1015.9
20260905052827 54 204 0.0 0.0 0.00 0.03 0.03 55 1015.9
20260905052321 54 204 0.0 0.0 0.00 0.03 0.03 54 1016.0
20260905051821 54 204 0.0 0.0 0.00 0.03 0.03 54 1016.0
20260905051320 54 204 0.0 0.0 0.00 0.03 0.03 54 1016.0
20260905050842 55 204 0.0 0.0 0.00 0.03 0.03 54 1016.0
20260905050321 55 204 0.0 0.0 0.00 0.03 0.03 54 1016.0
20260905045820 55 204 0.0 0.0 0.00 0.03 0.03 53 1016.0
20260905045317 55 204 0.0 0.0 0.00 0.03 0.03 53 1016.0
20260905044820 55 204 0.0 0.0 0.00 0.03 0.03 52 1016.0
20260905044320 55 204 0.0 0.0 0.00 0.03 0.03 53 1016.0
20260905043817 55 204 0.0 0.0 0.00 0.03 0.03 52 1015.9
20260905043317 56 204 0.0 0.0 0.00 0.03 0.03 53 1015.9
20260905042839 56 204 0.0 0.0 0.00 0.03 0.03 52 1015.9
20260905042338 56 204 0.0 0.0 0.00 0.03 0.03 52 1015.7
20260905041836 56 204 0.0 0.0 0.00 0.03 0.03 52 1015.7
20260905041336 56 204 0.0 0.0 0.00 0.03 0.03 52 1015.7
20260905040834 56 204 0.0 0.0 0.00 0.03 0.03 52 1015.5
20260905040315 56 204 0.0 0.0 0.00 0.03 0.03 51 1015.5
20260905035815 56 204 0.0 0.0 0.00 0.03 0.03 52 1015.5
20260905035340 57 204 0.0 0.0 0.00 0.03 0.03 52 1015.4
20260905034817 57 204 0.0 0.0 0.00 0.03 0.03 52 1015.4
20260905034323 57 204 0.0 0.0 0.00 0.03 0.03 52 1015.4
20260905033824 57 204 0.0 0.0 0.00 0.03 0.03 52 1015.3
20260905033323 57 204 0.0 0.0 0.00 0.03 0.03 52 1015.3
20260905032821 57 204 0.0 0.0 0.00 0.03 0.03 51 1015.3
20260905032320 57 204 0.0 0.0 0.00 0.03 0.03 51 1015.1
20260905031820 57 204 0.0 0.0 0.00 0.03 0.03 51 1015.1
20260905031321 57 204 0.0 0.0 0.00 0.03 0.03 52 1015.1
20260905030819 57 204 0.0 0.0 0.00 0.03 0.03 52 1015.1
20260905030319 57 204 0.0 0.0 0.00 0.03 0.03 53 1015.1
20260905025815 57 204 0.0 0.0 0.00 0.03 0.03 52 1015.1
20260905025314 57 204 0.0 0.0 0.00 0.03 0.03 53 1015.0
20260905024841 57 204 0.0 0.0 0.00 0.03 0.03 53 1015.0
20260905024338 58 204 0.0 0.0 0.00 0.03 0.03 52 1015.0
20260905023834 58 204 0.0 0.0 0.00 0.03 0.03 54 1015.0
20260905023357 58 204 0.0 0.0 0.00 0.03 0.03 52 1015.0
20260905022836 58 204 0.0 0.0 0.00 0.03 0.03 53 1015.0
20260905022336 58 204 0.0 0.0 0.00 0.03 0.03 52 1014.9
20260905021835 58 204 0.0 0.0 0.00 0.03 0.03 55 1014.9
20260905021334 58 204 0.0 0.0 0.00 0.03 0.03 54 1014.9
20260905020859 58 204 0.0 0.0 0.00 0.03 0.03 55 1015.0
20260905020337 58 204 0.0 0.0 0.00 0.03 0.03 54 1015.0
20260905015815 58 204 0.0 0.0 0.00 0.03 0.03 51 1015.0
20260905015339 58 204 0.0 0.0 0.00 0.03 0.03 50 1015.0
20260905014838 59 204 0.0 0.0 0.00 0.03 0.03 51 1015.0
20260905014336 59 204 0.0 0.0 0.00 0.03 0.03 51 1015.0
20260905013830 59 204 0.0 0.0 0.00 0.03 0.03 50 1014.9
20260905013330 60 204 0.0 0.0 0.00 0.03 0.03 50 1014.9
20260905012856 60 204 0.0 0.0 0.00 0.03 0.03 49 1014.9
20260905012333 60 204 0.0 0.0 0.00 0.03 0.03 49 1014.9
20260905011833 60 204 0.0 0.0 0.00 0.03 0.03 47 1014.9
20260905011314 60 204 0.0 0.0 0.00 0.03 0.03 46 1014.9
20260905010836 61 204 0.0 0.0 0.00 0.03 0.03 45 1014.9
20260905010335 61 204 0.0 0.0 0.00 0.03 0.03 43 1014.9
20260905005836 61 204 0.0 0.0 0.00 0.03 0.03 44 1014.9
20260905005335 62 206 0.0 0.0 0.00 0.03 0.03 43 1014.9
20260905004833 62 206 0.0 0.0 0.00 0.03 0.03 41 1014.9
20260905004331 63 227 0.0 0.0 0.00 0.03 0.03 40 1014.9
20260905003825 63 213 0.0 0.0 0.00 0.03 0.03 40 1014.8
20260905003323 63 234 0.0 0.0 0.00 0.03 0.03 40 1014.8
20260905002822 63 288 0.0 0.0 0.00 0.03 0.03 39 1014.8
20260905002322 63 292 0.0 0.0 0.00 0.03 0.03 40 1014.8
20260905001821 64 258 0.0 0.0 0.00 0.03 0.03 40 1014.8
20260905001319 64 223 0.0 0.0 0.00 0.03 0.03 40 1014.8
20260905000816 65 248 0.0 0.0 0.00 0.03 0.03 40 1014.8
20260905000342 65 218 0.0 0.0 0.00 0.03 0.03 41 1014.8
20260904235820 64 317 0.0 0.0 0.00 0.03 0.03 42 1014.8
20260904235318 65 286 0.0 0.0 0.00 0.03 0.03 42 1014.8
20260904234844 65 275 0.0 0.0 0.00 0.03 0.03 42 1014.8
20260904234342 65 217 0.0 0.0 0.00 0.03 0.03 44 1014.8
20260904233818 65 234 0.0 0.0 0.00 0.03 0.03 45 1014.8
20260904233317 64 214 0.0 0.0 0.00 0.03 0.03 48 1014.8
20260904232843 64 220 0.0 0.0 0.00 0.03 0.03 48 1014.8
20260904232346 64 218 0.0 0.0 0.00 0.03 0.03 50 1014.8
20260904231825 64 198 0.0 0.0 0.00 0.03 0.03 50 1014.8
20260904231351 64 210 0.0 0.0 0.00 0.03 0.03 50 1014.8
20260904230829 64 188 0.0 0.0 0.00 0.03 0.03 48 1014.8
20260904230328 65 238 0.0 0.0 0.00 0.03 0.03 47 1014.8
20260904225850 65 217 0.0 0.0 0.00 0.03 0.03 48 1014.8
20260904225325 64 215 0.0 0.0 0.00 0.03 0.03 49 1014.8
20260904224825 64 225 0.0 0.0 0.00 0.03 0.03 49 1014.8
20260904224322 64 212 0.0 0.0 0.00 0.03 0.03 49 1014.8
20260904223821 64 234 0.0 0.0 0.00 0.03 0.03 50 1014.9
20260904223317 64 182 0.0 0.0 0.00 0.03 0.03 50 1014.9
20260904222822 65 229 0.0 0.0 0.00 0.03 0.03 49 1014.9
20260904222322 65 212 0.0 0.0 0.00 0.03 0.03 50 1014.9
20260904221820 65 160 0.0 0.0 0.00 0.03 0.03 50 1014.9
20260904221317 64 176 0.0 0.0 0.00 0.03 0.03 50 1014.9
20260904220816 64 225 0.0 0.0 0.00 0.03 0.03 50 1014.9
20260904220339 64 184 0.0 0.0 0.00 0.03 0.03 52 1014.9
20260904215836 64 198 0.0 0.0 0.00 0.03 0.03 52 1014.9
20260904215335 64 192 0.0 0.0 0.00 0.03 0.03 53 1014.9
20260904214833 63 216 0.0 0.0 0.00 0.03 0.03 54 1014.9
20260904214330 62 198 0.0 0.0 0.00 0.03 0.03 58 1014.9
20260904213855 62 184 0.0 0.0 0.00 0.03 0.03 59 1014.9
20260904213329 61 180 0.0 0.0 0.00 0.03 0.03 62 1014.9
20260904212826 61 215 0.0 0.0 0.00 0.03 0.03 65 1014.9
20260904212352 61 211 0.0 0.0 0.00 0.03 0.03 68 1014.9
20260904211826 61 179 0.0 0.0 0.00 0.03 0.03 69 1014.9
20260904211320 60 194 0.0 0.0 0.00 0.03 0.03 71 1014.9
20260904210845 60 215 0.0 0.0 0.00 0.03 0.03 75 1014.9
20260904210350 59 214 0.0 0.0 0.00 0.03 0.03 82 1014.9
20260904205825 59 220 0.0 0.0 0.00 0.03 0.03 83 1014.9
20260904205324 59 184 0.0 0.0 0.00 0.03 0.03 83 1014.9
20260904204825 59 181 0.0 0.0 0.00 0.03 0.03 83 1014.9
20260904204348 59 163 0.0 0.0 0.00 0.03 0.03 87 1014.9
20260904203824 59 173 0.0 0.0 0.00 0.03 0.03 87 1014.9
20260904203347 59 186 0.0 0.0 0.00 0.03 0.03 91 1014.9
20260904202820 58 142 0.0 0.0 0.00 0.03 0.03 95 1014.9
20260904202318 58 167 0.0 0.0 0.00 0.03 0.03 95 1014.9
20260904201845 57 205 0.0 0.0 0.00 0.03 0.03 95 1014.9
20260904201333 58 165 0.0 0.0 0.00 0.03 0.03 96 1014.9
20260904200831 58 172 0.0 0.0 0.00 0.03 0.03 96 1014.9
20260904200329 57 182 0.0 0.0 0.00 0.03 0.03 96 1014.9
20260904195835 57 199 0.0 0.0 0.00 0.03 0.03 96 1014.9
20260904195332 57 173 0.0 0.0 0.00 0.03 0.03 96 1015.0
20260904194831 56 169 0.0 0.0 0.00 0.03 0.03 96 1015.0
20260904194329 56 196 0.0 0.0 0.00 0.03 0.03 96 1015.0
20260904193830 56 176 0.0 0.0 0.00 0.03 0.03 96 1015.0
20260904193329 56 172 0.0 0.0 0.00 0.03 0.03 96 1015.0
20260904192828 55 167 0.0 0.0 0.00 0.03 0.03 96 1015.0
20260904192325 55 182 0.0 0.0 0.00 0.03 0.03 96 1015.0
20260904191824 55 190 0.0 0.0 0.00 0.03 0.03 96 1015.0
20260904191351 55 170 0.0 0.0 0.00 0.03 0.03 96 1015.0
20260904190854 55 196 0.0 0.0 0.00 0.03 0.03 96 1015.0
20260904190333 55 165 0.0 0.0 0.00 0.03 0.03 96 1015.0
20260904185831 55 178 0.0 0.0 0.00 0.03 0.03 96 1015.0